Time,TemperatureF,DewpointF,PressureIn,WindDirection,WindDirectionDegrees,WindSpeedMPH,WindSpeedGustMPH,Humidity,HourlyPrecipIn,Conditions,Clouds,dailyrainin,SoftwareType,DateUTC
2013-10-14 00:01:00,49.6,43.4,30.28,NW,316,0.0,1.0,79,0.00,,,0.00,WUHU216DAVISVP2,2013-10-14 04:01:00,
2013-10-14 00:02:00,49.6,43.4,30.28,NW,316,0.0,2.0,79,0.00,,,0.00,WUHU216DAVISVP2,2013-10-14 04:02:00,
2013-10-14 00:07:00,49.6,43.4,30.28,NW,316,1.0,2.0,79,0.00,,,0.00,WUHU216DAVISVP2,2013-10-14 04:07:00,
2013-10-14 00:12:00,49.5,43.3,30.28,NW,316,0.0,2.0,79,0.00,,,0.00,WUHU216DAVISVP2,2013-10-14 04:12:00,
2013-10-14 00:17:00,49.3,43.1,30.29,NW,316,0.0,2.0,79,0.00,,,0.00,WUHU216DAVISVP2,2013-10-14 04:17:00,
2013-10-14 00:22:00,49.1,43.2,30.28,NW,316,0.0,2.0,80,0.00,,,0.00,WUHU216DAVISVP2,2013-10-14 04:22:00,
2013-10-14 00:27:00,49.1,43.2,30.29,NW,325,0.0,3.0,80,0.00,,,0.00,WUHU216DAVISVP2,2013-10-14 04:27:00,
2013-10-14 00:32:00,49.1,43.2,30.29,NW,306,0.0,3.0,80,0.00,,,0.00,WUHU216DAVISVP2,2013-10-14 04:32:00,
2013-10-14 00:37:00,49.1,43.2,30.29,NW,306,2.0,2.0,80,0.00,,,0.00,WUHU216DAVISVP2,2013-10-14 04:37:00,
2013-10-14 00:42:00,48.8,43.3,30.29,NW,306,0.0,2.0,81,0.00,,,0.00,WUHU216DAVISVP2,2013-10-14 04:42:00,
2013-10-14 00:47:00,48.7,43.2,30.29,NW,306,0.0,1.0,81,0.00,,,0.00,WUHU216DAVISVP2,2013-10-14 04:47:00,
2013-10-14 00:52:00,48.5,43.0,30.29,NW,306,0.0,1.0,81,0.00,,,0.00,WUHU216DAVISVP2,2013-10-14 04:52:00,
2013-10-14 00:57:00,48.4,43.2,30.29,NW,307,0.0,1.0,82,0.00,,,0.00,WUHU216DAVISVP2,2013-10-14 04:57:00,
2013-10-14 01:02:00,48.3,43.1,30.29,NW,307,0.0,1.0,82,0.00,,,0.00,WUHU216DAVISVP2,2013-10-14 05:02:00,
2013-10-14 01:07:00,48.1,42.9,30.29,NW,307,0.0,0.0,82,0.00,,,0.00,WUHU216DAVISVP2,2013-10-14 05:07:00,
2013-10-14 01:12:00,48.0,42.8,30.29,NW,307,0.0,0.0,82,0.00,,,0.00,WUHU216DAVISVP2,2013-10-14 05:12:00,
2013-10-14 01:17:00,47.8,42.9,30.29,NW,307,0.0,0.0,83,0.00,,,0.00,WUHU216DAVISVP2,2013-10-14 05:17:00,
2013-10-14 01:22:00,47.7,42.8,30.29,NW,307,0.0,0.0,83,0.00,,,0.00,WUHU216DAVISVP2,2013-10-14 05:22:00,
2013-10-14 01:27:00,47.6,42.7,30.29,NW,307,0.0,0.0,83,0.00,,,0.00,WUHU216DAVISVP2,2013-10-14 05:27:00,
2013-10-14 01:32:00,47.4,42.5,30.29,NW,307,0.0,0.0,83,0.00,,,0.00,WUHU216DAVISVP2,2013-10-14 05:32:00,
2013-10-14 01:37:00,47.2,42.6,30.29,NW,307,0.0,0.0,84,0.00,,,0.00,WUHU216DAVISVP2,2013-10-14 05:37:00,
2013-10-14 01:42:00,47.0,42.4,30.28,NW,307,0.0,0.0,84,0.00,,,0.00,WUHU216DAVISVP2,2013-10-14 05:42:00,
2013-10-14 01:47:00,46.8,42.5,30.29,NW,307,0.0,0.0,85,0.00,,,0.00,WUHU216DAVISVP2,2013-10-14 05:47:00,
2013-10-14 01:52:00,46.6,42.6,30.28,NW,307,1.0,1.0,86,0.00,,,0.00,WUHU216DAVISVP2,2013-10-14 05:52:00,
2013-10-14 01:57:00,46.6,42.6,30.29,NW,307,0.0,1.0,86,0.00,,,0.00,WUHU216DAVISVP2,2013-10-14 05:57:00,
2013-10-14 02:02:00,46.6,42.6,30.29,NW,307,0.0,1.0,86,0.00,,,0.00,WUHU216DAVISVP2,2013-10-14 06:02:00,
2013-10-14 02:07:00,46.5,42.5,30.29,NW,307,0.0,1.0,86,0.00,,,0.00,WUHU216DAVISVP2,2013-10-14 06:07:00,
2013-10-14 02:12:00,46.5,42.5,30.28,NW,315,0.0,2.0,86,0.00,,,0.00,WUHU216DAVISVP2,2013-10-14 06:12:00,
2013-10-14 02:17:00,46.6,42.6,30.28,NW,323,0.0,4.0,86,0.00,,,0.00,WUHU216DAVISVP2,2013-10-14 06:17:00,
2013-10-14 02:22:00,46.6,42.6,30.28,NNW,332,0.0,4.0,86,0.00,,,0.00,WUHU216DAVISVP2,2013-10-14 06:22:00,
2013-10-14 02:27:00,46.6,42.6,30.28,North,351,0.0,2.0,86,0.00,,,0.00,WUHU216DAVISVP2,2013-10-14 06:27:00,
2013-10-14 02:32:00,46.5,42.5,30.28,North,355,0.0,2.0,86,0.00,,,0.00,WUHU216DAVISVP2,2013-10-14 06:32:00,
2013-10-14 02:37:00,46.5,42.2,30.28,North,355,0.0,2.0,85,0.00,,,0.00,WUHU216DAVISVP2,2013-10-14 06:37:00,
2013-10-14 02:42:00,46.4,42.4,30.29,North,355,0.0,1.0,86,0.00,,,0.00,WUHU216DAVISVP2,2013-10-14 06:42:00,
2013-10-14 02:47:00,46.4,42.4,30.28,NNW,341,0.0,3.0,86,0.00,,,0.00,WUHU216DAVISVP2,2013-10-14 06:47:00,
2013-10-14 02:52:00,46.2,41.9,30.29,NNW,341,0.0,3.0,85,0.00,,,0.00,WUHU216DAVISVP2,2013-10-14 06:52:00,
2013-10-14 02:57:00,46.3,42.3,30.29,NE,40,0.0,3.0,86,0.00,,,0.00,WUHU216DAVISVP2,2013-10-14 06:57:00,
2013-10-14 03:02:00,46.3,42.3,30.30,NNE,29,1.0,3.0,86,0.00,,,0.00,WUHU216DAVISVP2,2013-10-14 07:02:00,
2013-10-14 03:07:00,46.3,42.3,30.30,NNE,29,0.0,2.0,86,0.00,,,0.00,WUHU216DAVISVP2,2013-10-14 07:07:00,
2013-10-14 03:12:00,46.1,41.8,30.30,NNE,29,0.0,1.0,85,0.00,,,0.00,WUHU216DAVISVP2,2013-10-14 07:12:00,
2013-10-14 03:17:00,45.9,41.6,30.30,NNE,29,0.0,0.0,85,0.00,,,0.00,WUHU216DAVISVP2,2013-10-14 07:17:00,
2013-10-14 03:22:00,45.7,41.7,30.30,NNE,29,0.0,0.0,86,0.00,,,0.00,WUHU216DAVISVP2,2013-10-14 07:22:00,
2013-10-14 03:27:00,45.4,41.4,30.30,NNE,29,0.0,0.0,86,0.00,,,0.00,WUHU216DAVISVP2,2013-10-14 07:27:00,
2013-10-14 03:32:00,45.4,41.7,30.30,NNE,28,0.0,1.0,87,0.00,,,0.00,WUHU216DAVISVP2,2013-10-14 07:32:00,
2013-10-14 03:37:00,45.2,41.5,30.30,NNE,28,0.0,1.0,87,0.00,,,0.00,WUHU216DAVISVP2,2013-10-14 07:37:00,
2013-10-14 03:42:00,45.1,41.4,30.30,NNE,28,0.0,0.0,87,0.00,,,0.00,WUHU216DAVISVP2,2013-10-14 07:42:00,
2013-10-14 03:47:00,45.1,41.4,30.30,NNE,28,0.0,0.0,87,0.00,,,0.00,WUHU216DAVISVP2,2013-10-14 07:47:00,
2013-10-14 03:52:00,45.0,41.3,30.30,NNE,28,0.0,0.0,87,0.00,,,0.00,WUHU216DAVISVP2,2013-10-14 07:52:00,
2013-10-14 03:57:00,44.9,41.2,30.30,NNE,28,0.0,0.0,87,0.00,,,0.00,WUHU216DAVISVP2,2013-10-14 07:57:00,
2013-10-14 04:02:00,44.8,41.1,30.30,NNE,28,0.0,0.0,87,0.00,,,0.00,WUHU216DAVISVP2,2013-10-14 08:02:00,
2013-10-14 04:07:00,44.7,41.3,30.30,NNE,28,0.0,0.0,88,0.00,,,0.00,WUHU216DAVISVP2,2013-10-14 08:07:00,
2013-10-14 04:12:00,44.7,41.3,30.30,NNE,28,0.0,0.0,88,0.00,,,0.00,WUHU216DAVISVP2,2013-10-14 08:12:00,
2013-10-14 04:17:00,44.6,41.2,30.30,NNE,28,0.0,0.0,88,0.00,,,0.00,WUHU216DAVISVP2,2013-10-14 08:17:00,
2013-10-14 04:22:00,44.5,41.1,30.30,NNE,28,0.0,0.0,88,0.00,,,0.00,WUHU216DAVISVP2,2013-10-14 08:22:00,
2013-10-14 04:27:00,44.5,41.4,30.31,NNE,28,0.0,0.0,89,0.00,,,0.00,WUHU216DAVISVP2,2013-10-14 08:27:00,
2013-10-14 04:32:00,44.4,41.3,30.30,NNE,28,0.0,0.0,89,0.00,,,0.00,WUHU216DAVISVP2,2013-10-14 08:32:00,
2013-10-14 04:37:00,44.4,41.3,30.31,NNE,28,0.0,1.0,89,0.00,,,0.00,WUHU216DAVISVP2,2013-10-14 08:37:00,
2013-10-14 04:42:00,44.4,41.3,30.31,NNE,28,0.0,1.0,89,0.00,,,0.00,WUHU216DAVISVP2,2013-10-14 08:42:00,
2013-10-14 04:47:00,44.4,41.3,30.31,NNE,28,0.0,0.0,89,0.00,,,0.00,WUHU216DAVISVP2,2013-10-14 08:47:00,
2013-10-14 04:52:00,44.3,41.5,30.31,NNE,28,0.0,0.0,90,0.00,,,0.00,WUHU216DAVISVP2,2013-10-14 08:52:00,
2013-10-14 04:57:00,44.3,41.5,30.31,NNE,28,0.0,1.0,90,0.00,,,0.00,WUHU216DAVISVP2,2013-10-14 08:57:00,
2013-10-14 05:02:00,44.3,41.5,30.31,NNE,28,0.0,1.0,90,0.00,,,0.00,WUHU216DAVISVP2,2013-10-14 09:02:00,
2013-10-14 05:07:00,44.3,41.5,30.31,NNE,28,0.0,1.0,90,0.00,,,0.00,WUHU216DAVISVP2,2013-10-14 09:07:00,
2013-10-14 05:12:00,44.3,41.5,30.31,NNE,28,0.0,1.0,90,0.00,,,0.00,WUHU216DAVISVP2,2013-10-14 09:12:00,
2013-10-14 05:17:00,44.3,41.5,30.31,NNE,28,0.0,0.0,90,0.00,,,0.00,WUHU216DAVISVP2,2013-10-14 09:17:00,
2013-10-14 05:22:00,44.2,41.4,30.31,NNE,28,0.0,0.0,90,0.00,,,0.00,WUHU216DAVISVP2,2013-10-14 09:22:00,
2013-10-14 05:27:00,44.2,41.7,30.31,NNE,29,0.0,1.0,91,0.00,,,0.00,WUHU216DAVISVP2,2013-10-14 09:27:00,
2013-10-14 05:32:00,44.2,41.7,30.31,NNE,29,0.0,2.0,91,0.00,,,0.00,WUHU216DAVISVP2,2013-10-14 09:32:00,
2013-10-14 05:37:00,44.2,41.7,30.31,NNE,29,0.0,2.0,91,0.00,,,0.00,WUHU216DAVISVP2,2013-10-14 09:37:00,
2013-10-14 05:42:00,44.1,41.6,30.31,NNE,29,0.0,0.0,91,0.00,,,0.00,WUHU216DAVISVP2,2013-10-14 09:42:00,
2013-10-14 05:47:00,44.0,41.5,30.31,NNE,29,0.0,0.0,91,0.00,,,0.00,WUHU216DAVISVP2,2013-10-14 09:47:00,
2013-10-14 05:52:00,44.0,41.5,30.31,NNE,29,0.0,0.0,91,0.00,,,0.00,WUHU216DAVISVP2,2013-10-14 09:52:00,
2013-10-14 05:57:00,43.9,41.4,30.32,NNE,29,0.0,0.0,91,0.00,,,0.00,WUHU216DAVISVP2,2013-10-14 09:57:00,
2013-10-14 06:02:00,43.8,41.6,30.32,NNE,29,0.0,1.0,92,0.00,,,0.00,WUHU216DAVISVP2,2013-10-14 10:02:00,
2013-10-14 06:07:00,43.7,41.5,30.32,NNE,29,0.0,1.0,92,0.00,,,0.00,WUHU216DAVISVP2,2013-10-14 10:07:00,
2013-10-14 06:12:00,43.7,41.5,30.32,NNE,29,0.0,1.0,92,0.00,,,0.00,WUHU216DAVISVP2,2013-10-14 10:12:00,
2013-10-14 06:17:00,43.8,41.6,30.32,NNE,29,0.0,1.0,92,0.00,,,0.00,WUHU216DAVISVP2,2013-10-14 10:17:00,
2013-10-14 06:22:00,43.7,41.5,30.32,NNE,29,0.0,1.0,92,0.00,,,0.00,WUHU216DAVISVP2,2013-10-14 10:22:00,
2013-10-14 06:27:00,43.7,41.5,30.32,NNE,16,0.0,2.0,92,0.00,,,0.00,WUHU216DAVISVP2,2013-10-14 10:27:00,
2013-10-14 06:32:00,43.8,41.6,30.33,NNE,16,0.0,2.0,92,0.00,,,0.00,WUHU216DAVISVP2,2013-10-14 10:32:00,
2013-10-14 06:37:00,43.8,41.6,30.33,NNE,16,0.0,1.0,92,0.00,,,0.00,WUHU216DAVISVP2,2013-10-14 10:37:00,
2013-10-14 06:42:00,43.7,41.5,30.33,NNE,16,0.0,1.0,92,0.00,,,0.00,WUHU216DAVISVP2,2013-10-14 10:42:00,
2013-10-14 06:47:00,43.6,41.4,30.33,NNE,16,0.0,0.0,92,0.00,,,0.00,WUHU216DAVISVP2,2013-10-14 10:47:00,
2013-10-14 06:52:00,43.6,41.4,30.33,NNE,16,0.0,0.0,92,0.00,,,0.00,WUHU216DAVISVP2,2013-10-14 10:52:00,
2013-10-14 06:57:00,43.6,41.7,30.33,NNE,16,0.0,1.0,93,0.00,,,0.00,WUHU216DAVISVP2,2013-10-14 10:57:00,
2013-10-14 07:02:00,43.6,41.7,30.33,NNE,16,0.0,1.0,93,0.00,,,0.00,WUHU216DAVISVP2,2013-10-14 11:02:00,
2013-10-14 07:07:00,43.6,41.7,30.33,NNE,16,0.0,0.0,93,0.00,,,0.00,WUHU216DAVISVP2,2013-10-14 11:07:00,
2013-10-14 07:12:00,43.5,41.6,30.33,NNE,16,0.0,0.0,93,0.00,,,0.00,WUHU216DAVISVP2,2013-10-14 11:12:00,
2013-10-14 07:17:00,43.6,41.7,30.33,NNE,16,0.0,1.0,93,0.00,,,0.00,WUHU216DAVISVP2,2013-10-14 11:17:00,
2013-10-14 07:22:00,43.6,41.7,30.33,NNE,16,0.0,1.0,93,0.00,,,0.00,WUHU216DAVISVP2,2013-10-14 11:22:00,
2013-10-14 07:27:00,43.6,41.7,30.33,NNE,16,0.0,1.0,93,0.00,,,0.00,WUHU216DAVISVP2,2013-10-14 11:27:00,
2013-10-14 07:32:00,43.5,41.6,30.33,NNE,16,0.0,0.0,93,0.00,,,0.00,WUHU216DAVISVP2,2013-10-14 11:32:00,
2013-10-14 07:37:00,43.5,41.6,30.33,NNE,16,0.0,0.0,93,0.00,,,0.00,WUHU216DAVISVP2,2013-10-14 11:37:00,
2013-10-14 07:42:00,43.5,41.6,30.33,NNE,16,0.0,0.0,93,0.00,,,0.00,WUHU216DAVISVP2,2013-10-14 11:42:00,
2013-10-14 07:47:00,43.5,41.6,30.34,NNE,16,0.0,0.0,93,0.00,,,0.00,WUHU216DAVISVP2,2013-10-14 11:47:00,
2013-10-14 07:52:00,43.5,41.6,30.33,NNE,16,0.0,0.0,93,0.00,,,0.00,WUHU216DAVISVP2,2013-10-14 11:52:00,
2013-10-14 07:57:00,43.5,41.6,30.34,NNE,16,0.0,2.0,93,0.00,,,0.00,WUHU216DAVISVP2,2013-10-14 11:57:00,
2013-10-14 08:02:00,43.6,41.7,30.34,NNE,16,0.0,2.0,93,0.00,,,0.00,WUHU216DAVISVP2,2013-10-14 12:02:00,
2013-10-14 08:07:00,43.6,41.7,30.34,NNE,16,0.0,2.0,93,0.00,,,0.00,WUHU216DAVISVP2,2013-10-14 12:07:00,
2013-10-14 08:12:00,43.7,41.8,30.34,NNE,16,0.0,1.0,93,0.00,,,0.00,WUHU216DAVISVP2,2013-10-14 12:12:00,
2013-10-14 08:17:00,43.8,41.9,30.34,NNE,17,1.0,2.0,93,0.00,,,0.00,WUHU216DAVISVP2,2013-10-14 12:17:00,
2013-10-14 08:22:00,43.8,42.1,30.34,NNE,17,0.0,2.0,94,0.00,,,0.00,WUHU216DAVISVP2,2013-10-14 12:22:00,
2013-10-14 08:27:00,43.9,42.0,30.34,North,360,0.0,2.0,93,0.00,,,0.00,WUHU216DAVISVP2,2013-10-14 12:27:00,
2013-10-14 08:32:00,44.0,42.1,30.34,North,9,0.0,2.0,93,0.00,,,0.00,WUHU216DAVISVP2,2013-10-14 12:32:00,
2013-10-14 08:37:00,44.1,42.2,30.34,North,9,2.0,2.0,93,0.00,,,0.00,WUHU216DAVISVP2,2013-10-14 12:37:00,
2013-10-14 08:42:00,44.3,42.4,30.34,North,11,0.0,2.0,93,0.00,,,0.00,WUHU216DAVISVP2,2013-10-14 12:42:00,
2013-10-14 08:47:00,44.6,42.9,30.34,NNE,13,0.0,2.0,94,0.00,,,0.00,WUHU216DAVISVP2,2013-10-14 12:47:00,
2013-10-14 08:52:00,45.1,43.2,30.34,NE,39,1.0,5.0,93,0.00,,,0.00,WUHU216DAVISVP2,2013-10-14 12:52:00,
2013-10-14 08:57:00,45.8,43.8,30.34,NE,38,2.0,6.0,93,0.00,,,0.00,WUHU216DAVISVP2,2013-10-14 12:57:00,
2013-10-14 09:02:00,46.4,44.4,30.34,North,5,4.0,6.0,93,0.00,,,0.00,WUHU216DAVISVP2,2013-10-14 13:02:00,
2013-10-14 09:07:00,46.9,44.7,30.34,North,11,6.0,6.0,92,0.00,,,0.00,WUHU216DAVISVP2,2013-10-14 13:07:00,
2013-10-14 09:12:00,47.2,44.7,30.34,NNE,17,5.0,8.0,91,0.00,,,0.00,WUHU216DAVISVP2,2013-10-14 13:12:00,
2013-10-14 09:17:00,47.4,44.9,30.35,NNE,32,0.0,8.0,91,0.00,,,0.00,WUHU216DAVISVP2,2013-10-14 13:17:00,
2013-10-14 09:22:00,47.8,45.3,30.35,ENE,67,2.0,7.0,91,0.00,,,0.00,WUHU216DAVISVP2,2013-10-14 13:22:00,
2013-10-14 09:27:00,48.2,45.4,30.34,NE,40,6.0,8.0,90,0.00,,,0.00,WUHU216DAVISVP2,2013-10-14 13:27:00,
2013-10-14 09:32:00,48.6,45.5,30.34,North,10,8.0,8.0,89,0.00,,,0.00,WUHU216DAVISVP2,2013-10-14 13:32:00,
2013-10-14 09:37:00,49.0,45.6,30.34,North,355,7.0,8.0,88,0.00,,,0.00,WUHU216DAVISVP2,2013-10-14 13:37:00,
2013-10-14 09:42:00,49.5,45.5,30.34,NNE,18,3.0,8.0,86,0.00,,,0.00,WUHU216DAVISVP2,2013-10-14 13:42:00,
2013-10-14 09:47:00,50.0,45.7,30.34,NNW,344,5.0,8.0,85,0.00,,,0.00,WUHU216DAVISVP2,2013-10-14 13:47:00,
2013-10-14 09:52:00,50.5,45.5,30.35,NNE,22,0.0,7.0,83,0.00,,,0.00,WUHU216DAVISVP2,2013-10-14 13:52:00,
2013-10-14 09:57:00,50.9,45.6,30.35,NE,52,5.0,9.0,82,0.00,,,0.00,WUHU216DAVISVP2,2013-10-14 13:57:00,
2013-10-14 10:02:00,51.3,46.0,30.35,NNE,19,1.0,9.0,82,0.00,,,0.00,WUHU216DAVISVP2,2013-10-14 14:02:00,
2013-10-14 10:07:00,51.8,45.9,30.34,NNE,17,1.0,8.0,80,0.00,,,0.00,WUHU216DAVISVP2,2013-10-14 14:07:00,
2013-10-14 10:12:00,52.1,45.5,30.34,North,360,6.0,9.0,78,0.00,,,0.00,WUHU216DAVISVP2,2013-10-14 14:12:00,
2013-10-14 10:17:00,52.5,45.9,30.34,NNE,24,4.0,9.0,78,0.00,,,0.00,WUHU216DAVISVP2,2013-10-14 14:17:00,
2013-10-14 10:22:00,52.8,45.9,30.34,ENE,68,5.0,7.0,77,0.00,,,0.00,WUHU216DAVISVP2,2013-10-14 14:22:00,
2013-10-14 10:27:00,53.1,45.5,30.34,ENE,62,1.0,8.0,75,0.00,,,0.00,WUHU216DAVISVP2,2013-10-14 14:27:00,
2013-10-14 10:32:00,53.4,45.7,30.34,NE,51,2.0,9.0,75,0.00,,,0.00,WUHU216DAVISVP2,2013-10-14 14:32:00,
2013-10-14 10:37:00,53.7,45.6,30.34,NNE,27,5.0,9.0,74,0.00,,,0.00,WUHU216DAVISVP2,2013-10-14 14:37:00,
2013-10-14 10:42:00,54.1,45.6,30.33,ENE,69,2.0,8.0,73,0.00,,,0.00,WUHU216DAVISVP2,2013-10-14 14:42:00,
2013-10-14 10:47:00,54.5,46.1,30.33,North,9,4.0,8.0,73,0.00,,,0.00,WUHU216DAVISVP2,2013-10-14 14:47:00,
2013-10-14 10:52:00,54.8,46.1,30.33,ENE,63,0.0,9.0,72,0.00,,,0.00,WUHU216DAVISVP2,2013-10-14 14:52:00,
2013-10-14 10:57:00,55.3,46.5,30.33,ENE,67,4.0,9.0,72,0.00,,,0.00,WUHU216DAVISVP2,2013-10-14 14:57:00,
2013-10-14 11:02:00,55.7,45.8,30.33,NNE,28,4.0,8.0,69,0.00,,,0.00,WUHU216DAVISVP2,2013-10-14 15:02:00,
2013-10-14 11:07:00,55.7,45.8,30.33,ENE,65,1.0,8.0,69,0.00,,,0.00,WUHU216DAVISVP2,2013-10-14 15:07:00,
2013-10-14 11:12:00,56.1,45.8,30.33,North,355,7.0,8.0,68,0.00,,,0.00,WUHU216DAVISVP2,2013-10-14 15:12:00,
2013-10-14 11:17:00,56.3,45.6,30.33,North,355,7.0,8.0,67,0.00,,,0.00,WUHU216DAVISVP2,2013-10-14 15:17:00,
2013-10-14 11:22:00,56.7,46.3,30.33,NE,40,1.0,8.0,68,0.00,,,0.00,WUHU216DAVISVP2,2013-10-14 15:22:00,
2013-10-14 11:27:00,57.1,45.8,30.32,NNE,30,2.0,8.0,66,0.00,,,0.00,WUHU216DAVISVP2,2013-10-14 15:27:00,
2013-10-14 11:32:00,57.3,45.6,30.32,ESE,123,2.0,11.0,65,0.00,,,0.00,WUHU216DAVISVP2,2013-10-14 15:32:00,
2013-10-14 11:37:00,57.7,47.0,30.32,NE,55,4.0,11.0,67,0.00,,,0.00,WUHU216DAVISVP2,2013-10-14 15:37:00,
2013-10-14 11:42:00,57.8,46.2,30.32,East,94,1.0,8.0,65,0.00,,,0.00,WUHU216DAVISVP2,2013-10-14 15:42:00,
2013-10-14 11:47:00,58.0,46.4,30.32,ENE,64,4.0,9.0,65,0.00,,,0.00,WUHU216DAVISVP2,2013-10-14 15:47:00,
2013-10-14 11:52:00,58.1,46.5,30.32,East,95,4.0,9.0,65,0.00,,,0.00,WUHU216DAVISVP2,2013-10-14 15:52:00,
2013-10-14 11:57:00,58.2,46.6,30.32,East,80,1.0,9.0,65,0.00,,,0.00,WUHU216DAVISVP2,2013-10-14 15:57:00,
2013-10-14 12:02:00,58.4,46.4,30.32,NE,43,7.0,8.0,64,0.00,,,0.00,WUHU216DAVISVP2,2013-10-14 16:02:00,
2013-10-14 12:07:00,58.4,46.8,30.32,NE,51,0.0,8.0,65,0.00,,,0.00,WUHU216DAVISVP2,2013-10-14 16:07:00,
2013-10-14 12:12:00,58.7,46.7,30.32,SE,129,5.0,8.0,64,0.00,,,0.00,WUHU216DAVISVP2,2013-10-14 16:12:00,
2013-10-14 12:17:00,59.0,47.0,30.32,East,80,6.0,8.0,64,0.00,,,0.00,WUHU216DAVISVP2,2013-10-14 16:17:00,
2013-10-14 12:22:00,59.2,47.0,30.31,ENE,68,3.0,8.0,64,0.00,,,0.00,WUHU216DAVISVP2,2013-10-14 16:22:00,
2013-10-14 12:27:00,59.5,46.5,30.32,East,96,4.0,7.0,62,0.00,,,0.00,WUHU216DAVISVP2,2013-10-14 16:27:00,
2013-10-14 12:32:00,59.8,46.7,30.31,NE,49,0.0,7.0,62,0.00,,,0.00,WUHU216DAVISVP2,2013-10-14 16:32:00,
2013-10-14 12:37:00,60.4,47.7,30.31,ESE,104,3.0,7.0,63,0.00,,,0.00,WUHU216DAVISVP2,2013-10-14 16:37:00,
2013-10-14 12:42:00,60.3,46.4,30.31,East,89,3.0,7.0,60,0.00,,,0.00,WUHU216DAVISVP2,2013-10-14 16:42:00,
2013-10-14 12:47:00,59.8,45.4,30.31,NNW,344,5.0,7.0,59,0.00,,,0.00,WUHU216DAVISVP2,2013-10-14 16:47:00,
2013-10-14 12:52:00,59.7,46.4,30.30,East,86,5.0,8.0,61,0.00,,,0.00,WUHU216DAVISVP2,2013-10-14 16:52:00,
2013-10-14 12:57:00,59.9,46.1,30.30,East,84,4.0,8.0,60,0.00,,,0.00,WUHU216DAVISVP2,2013-10-14 16:57:00,
2013-10-14 13:02:00,60.2,46.8,30.30,ESE,113,0.0,6.0,61,0.00,,,0.00,WUHU216DAVISVP2,2013-10-14 17:02:00,
2013-10-14 13:07:00,60.7,46.9,30.30,ESE,110,5.0,7.0,60,0.00,,,0.00,WUHU216DAVISVP2,2013-10-14 17:07:00,
2013-10-14 13:12:00,61.1,46.3,30.29,SE,138,5.0,9.0,58,0.00,,,0.00,WUHU216DAVISVP2,2013-10-14 17:12:00,
2013-10-14 13:17:00,61.1,46.8,30.29,East,91,0.0,9.0,59,0.00,,,0.00,WUHU216DAVISVP2,2013-10-14 17:17:00,
2013-10-14 13:22:00,61.3,46.5,30.28,North,10,4.0,9.0,58,0.00,,,0.00,WUHU216DAVISVP2,2013-10-14 17:22:00,
2013-10-14 13:27:00,61.4,46.6,30.28,ENE,76,1.0,9.0,58,0.00,,,0.00,WUHU216DAVISVP2,2013-10-14 17:27:00,
2013-10-14 13:32:00,61.3,46.0,30.28,NE,38,5.0,9.0,57,0.00,,,0.00,WUHU216DAVISVP2,2013-10-14 17:32:00,
2013-10-14 13:37:00,61.1,46.3,30.27,ENE,66,0.0,9.0,58,0.00,,,0.00,WUHU216DAVISVP2,2013-10-14 17:37:00,
2013-10-14 13:42:00,61.2,46.0,30.27,East,97,8.0,8.0,57,0.00,,,0.00,WUHU216DAVISVP2,2013-10-14 17:42:00,
2013-10-14 13:47:00,61.4,46.6,30.27,ENE,69,2.0,9.0,58,0.00,,,0.00,WUHU216DAVISVP2,2013-10-14 17:47:00,
2013-10-14 13:52:00,61.4,46.1,30.27,NNE,21,0.0,9.0,57,0.00,,,0.00,WUHU216DAVISVP2,2013-10-14 17:52:00,
2013-10-14 13:57:00,61.5,46.2,30.27,NNE,24,1.0,7.0,57,0.00,,,0.00,WUHU216DAVISVP2,2013-10-14 17:57:00,
2013-10-14 14:02:00,61.5,46.2,30.26,ENE,77,4.0,7.0,57,0.00,,,0.00,WUHU216DAVISVP2,2013-10-14 18:02:00,
2013-10-14 14:07:00,61.7,46.9,30.26,SE,138,6.0,8.0,58,0.00,,,0.00,WUHU216DAVISVP2,2013-10-14 18:07:00,
2013-10-14 14:12:00,61.8,45.5,30.26,North,11,2.0,8.0,55,0.00,,,0.00,WUHU216DAVISVP2,2013-10-14 18:12:00,
2013-10-14 14:17:00,61.9,45.1,30.26,ENE,61,2.0,7.0,54,0.00,,,0.00,WUHU216DAVISVP2,2013-10-14 18:17:00,
2013-10-14 14:22:00,61.9,46.1,30.26,NE,37,5.0,9.0,56,0.00,,,0.00,WUHU216DAVISVP2,2013-10-14 18:22:00,
2013-10-14 14:27:00,61.9,45.6,30.26,ESE,107,0.0,9.0,55,0.00,,,0.00,WUHU216DAVISVP2,2013-10-14 18:27:00,
2013-10-14 14:32:00,62.0,45.7,30.25,ENE,68,2.0,7.0,55,0.00,,,0.00,WUHU216DAVISVP2,2013-10-14 18:32:00,
2013-10-14 14:37:00,62.1,46.3,30.25,East,90,3.0,9.0,56,0.00,,,0.00,WUHU216DAVISVP2,2013-10-14 18:37:00,
2013-10-14 14:42:00,62.3,46.0,30.25,NE,53,0.0,9.0,55,0.00,,,0.00,WUHU216DAVISVP2,2013-10-14 18:42:00,
2013-10-14 14:47:00,62.5,46.2,30.25,NW,312,2.0,7.0,55,0.00,,,0.00,WUHU216DAVISVP2,2013-10-14 18:47:00,
2013-10-14 14:52:00,62.6,45.8,30.25,NE,55,5.0,7.0,54,0.00,,,0.00,WUHU216DAVISVP2,2013-10-14 18:52:00,
2013-10-14 14:57:00,62.5,46.2,30.25,NNE,26,2.0,7.0,55,0.00,,,0.00,WUHU216DAVISVP2,2013-10-14 18:57:00,
2013-10-14 15:02:00,62.4,46.1,30.25,NNE,30,6.0,6.0,55,0.00,,,0.00,WUHU216DAVISVP2,2013-10-14 19:02:00,
2013-10-14 15:07:00,62.5,47.2,30.25,ENE,77,0.0,6.0,57,0.00,,,0.00,WUHU216DAVISVP2,2013-10-14 19:07:00,
2013-10-14 15:12:00,62.7,46.9,30.25,ENE,78,0.0,5.0,56,0.00,,,0.00,WUHU216DAVISVP2,2013-10-14 19:12:00,
2013-10-14 15:17:00,63.0,46.7,30.25,East,101,1.0,6.0,55,0.00,,,0.00,WUHU216DAVISVP2,2013-10-14 19:17:00,
2013-10-14 15:22:00,63.3,47.0,30.25,SE,126,0.0,6.0,55,0.00,,,0.00,WUHU216DAVISVP2,2013-10-14 19:22:00,
2013-10-14 15:27:00,63.6,46.7,30.25,ENE,75,3.0,7.0,54,0.00,,,0.00,WUHU216DAVISVP2,2013-10-14 19:27:00,
2013-10-14 15:32:00,63.6,46.7,30.25,NE,54,1.0,7.0,54,0.00,,,0.00,WUHU216DAVISVP2,2013-10-14 19:32:00,
2013-10-14 15:37:00,63.5,46.6,30.25,ESE,107,1.0,7.0,54,0.00,,,0.00,WUHU216DAVISVP2,2013-10-14 19:37:00,
2013-10-14 15:42:00,63.3,46.5,30.25,North,9,2.0,7.0,54,0.00,,,0.00,WUHU216DAVISVP2,2013-10-14 19:42:00,
2013-10-14 15:47:00,63.2,46.4,30.25,ENE,64,0.0,5.0,54,0.00,,,0.00,WUHU216DAVISVP2,2013-10-14 19:47:00,
2013-10-14 15:52:00,63.4,47.0,30.25,ENE,64,0.0,5.0,55,0.00,,,0.00,WUHU216DAVISVP2,2013-10-14 19:52:00,
2013-10-14 15:57:00,63.9,47.0,30.24,East,91,4.0,4.0,54,0.00,,,0.00,WUHU216DAVISVP2,2013-10-14 19:57:00,
2013-10-14 16:02:00,64.1,48.2,30.24,East,98,4.0,9.0,56,0.00,,,0.00,WUHU216DAVISVP2,2013-10-14 20:02:00,
2013-10-14 16:07:00,64.1,46.7,30.24,ESE,109,5.0,9.0,53,0.00,,,0.00,WUHU216DAVISVP2,2013-10-14 20:07:00,
2013-10-14 16:12:00,63.9,47.0,30.24,ESE,117,0.0,11.0,54,0.00,,,0.00,WUHU216DAVISVP2,2013-10-14 20:12:00,
2013-10-14 16:17:00,63.4,47.0,30.24,East,94,0.0,11.0,55,0.00,,,0.00,WUHU216DAVISVP2,2013-10-14 20:17:00,
2013-10-14 16:22:00,63.1,46.8,30.24,NE,51,5.0,6.0,55,0.00,,,0.00,WUHU216DAVISVP2,2013-10-14 20:22:00,
2013-10-14 16:27:00,62.6,46.8,30.24,NE,46,1.0,6.0,56,0.00,,,0.00,WUHU216DAVISVP2,2013-10-14 20:27:00,
2013-10-14 16:32:00,62.7,47.4,30.23,ENE,65,0.0,6.0,57,0.00,,,0.00,WUHU216DAVISVP2,2013-10-14 20:32:00,
2013-10-14 16:37:00,62.9,46.1,30.23,NE,52,5.0,6.0,54,0.00,,,0.00,WUHU216DAVISVP2,2013-10-14 20:37:00,
2013-10-14 16:42:00,62.9,46.1,30.23,ENE,57,0.0,6.0,54,0.00,,,0.00,WUHU216DAVISVP2,2013-10-14 20:42:00,
2013-10-14 16:47:00,63.4,46.5,30.23,ENE,57,0.0,5.0,54,0.00,,,0.00,WUHU216DAVISVP2,2013-10-14 20:47:00,
2013-10-14 16:52:00,63.9,48.0,30.23,SSE,156,0.0,4.0,56,0.00,,,0.00,WUHU216DAVISVP2,2013-10-14 20:52:00,
2013-10-14 16:57:00,64.1,47.2,30.23,East,86,4.0,6.0,54,0.00,,,0.00,WUHU216DAVISVP2,2013-10-14 20:57:00,
2013-10-14 17:02:00,63.9,47.0,30.22,NE,43,1.0,6.0,54,0.00,,,0.00,WUHU216DAVISVP2,2013-10-14 21:02:00,
2013-10-14 17:07:00,63.6,47.2,30.22,East,101,4.0,6.0,55,0.00,,,0.00,WUHU216DAVISVP2,2013-10-14 21:07:00,
2013-10-14 17:12:00,63.4,47.5,30.22,ESE,108,1.0,6.0,56,0.00,,,0.00,WUHU216DAVISVP2,2013-10-14 21:12:00,
2013-10-14 17:17:00,63.2,46.9,30.21,ESE,117,3.0,7.0,55,0.00,,,0.00,WUHU216DAVISVP2,2013-10-14 21:17:00,
2013-10-14 17:22:00,63.1,47.3,30.22,SE,128,0.0,7.0,56,0.00,,,0.00,WUHU216DAVISVP2,2013-10-14 21:22:00,
2013-10-14 17:27:00,63.1,47.3,30.22,East,84,2.0,6.0,56,0.00,,,0.00,WUHU216DAVISVP2,2013-10-14 21:27:00,
2013-10-14 17:32:00,63.1,47.7,30.22,East,87,4.0,6.0,57,0.00,,,0.00,WUHU216DAVISVP2,2013-10-14 21:32:00,
2013-10-14 17:37:00,62.9,47.5,30.22,East,91,0.0,4.0,57,0.00,,,0.00,WUHU216DAVISVP2,2013-10-14 21:37:00,
2013-10-14 17:42:00,63.1,47.7,30.22,East,87,1.0,4.0,57,0.00,,,0.00,WUHU216DAVISVP2,2013-10-14 21:42:00,
2013-10-14 17:47:00,63.1,47.3,30.22,ESE,118,0.0,2.0,56,0.00,,,0.00,WUHU216DAVISVP2,2013-10-14 21:47:00,
2013-10-14 17:52:00,63.1,47.3,30.22,ESE,115,0.0,4.0,56,0.00,,,0.00,WUHU216DAVISVP2,2013-10-14 21:52:00,
2013-10-14 17:57:00,63.0,47.6,30.22,SE,135,0.0,6.0,57,0.00,,,0.00,WUHU216DAVISVP2,2013-10-14 21:57:00,
2013-10-14 18:02:00,63.0,47.6,30.22,SE,135,0.0,6.0,57,0.00,,,0.00,WUHU216DAVISVP2,2013-10-14 22:02:00,
2013-10-14 18:07:00,62.9,47.1,30.21,SE,130,0.0,2.0,56,0.00,,,0.00,WUHU216DAVISVP2,2013-10-14 22:07:00,
2013-10-14 18:12:00,62.8,47.5,30.22,SE,130,1.0,2.0,57,0.00,,,0.00,WUHU216DAVISVP2,2013-10-14 22:12:00,
2013-10-14 18:17:00,62.5,47.2,30.22,SE,130,0.0,2.0,57,0.00,,,0.00,WUHU216DAVISVP2,2013-10-14 22:17:00,
2013-10-14 18:22:00,62.2,47.4,30.22,SE,130,0.0,2.0,58,0.00,,,0.00,WUHU216DAVISVP2,2013-10-14 22:22:00,
2013-10-14 18:27:00,61.9,47.5,30.21,ESE,117,0.0,3.0,59,0.00,,,0.00,WUHU216DAVISVP2,2013-10-14 22:27:00,
2013-10-14 18:32:00,61.6,47.3,30.21,ESE,112,0.0,3.0,59,0.00,,,0.00,WUHU216DAVISVP2,2013-10-14 22:32:00,
2013-10-14 18:37:00,61.1,47.2,30.22,ESE,112,0.0,1.0,60,0.00,,,0.00,WUHU216DAVISVP2,2013-10-14 22:37:00,
2013-10-14 18:42:00,60.6,46.8,30.22,ESE,112,0.0,2.0,60,0.00,,,0.00,WUHU216DAVISVP2,2013-10-14 22:42:00,
2013-10-14 18:47:00,60.2,46.8,30.22,ESE,112,0.0,2.0,61,0.00,,,0.00,WUHU216DAVISVP2,2013-10-14 22:47:00,
2013-10-14 18:52:00,59.6,46.7,30.22,ESE,111,2.0,4.0,62,0.00,,,0.00,WUHU216DAVISVP2,2013-10-14 22:52:00,
2013-10-14 18:57:00,59.2,46.7,30.22,ESE,111,0.0,4.0,63,0.00,,,0.00,WUHU216DAVISVP2,2013-10-14 22:57:00,
2013-10-14 19:02:00,58.7,46.7,30.22,ESE,110,0.0,4.0,64,0.00,,,0.00,WUHU216DAVISVP2,2013-10-14 23:02:00,
2013-10-14 19:07:00,58.3,46.7,30.22,East,101,1.0,5.0,65,0.00,,,0.00,WUHU216DAVISVP2,2013-10-14 23:07:00,
2013-10-14 19:12:00,57.9,46.7,30.22,East,82,5.0,5.0,66,0.00,,,0.00,WUHU216DAVISVP2,2013-10-14 23:12:00,
2013-10-14 19:17:00,57.5,46.8,30.22,East,85,0.0,5.0,67,0.00,,,0.00,WUHU216DAVISVP2,2013-10-14 23:17:00,
2013-10-14 19:22:00,57.0,46.7,30.22,East,88,0.0,2.0,68,0.00,,,0.00,WUHU216DAVISVP2,2013-10-14 23:22:00,
2013-10-14 19:27:00,56.7,46.8,30.23,East,89,0.0,2.0,69,0.00,,,0.00,WUHU216DAVISVP2,2013-10-14 23:27:00,
2013-10-14 19:32:00,56.4,46.9,30.23,East,90,0.0,2.0,70,0.00,,,0.00,WUHU216DAVISVP2,2013-10-14 23:32:00,
2013-10-14 19:37:00,56.0,46.5,30.23,East,86,0.0,2.0,70,0.00,,,0.00,WUHU216DAVISVP2,2013-10-14 23:37:00,
2013-10-14 19:42:00,55.7,46.6,30.23,East,86,0.0,2.0,71,0.00,,,0.00,WUHU216DAVISVP2,2013-10-14 23:42:00,
2013-10-14 19:47:00,55.4,46.3,30.23,East,86,0.0,1.0,71,0.00,,,0.00,WUHU216DAVISVP2,2013-10-14 23:47:00,
2013-10-14 19:52:00,55.1,46.3,30.23,East,86,0.0,1.0,72,0.00,,,0.00,WUHU216DAVISVP2,2013-10-14 23:52:00,
2013-10-14 19:57:00,54.7,46.3,30.23,East,86,0.0,0.0,73,0.00,,,0.00,WUHU216DAVISVP2,2013-10-14 23:57:00,
2013-10-14 20:02:00,54.2,46.2,30.23,East,86,0.0,0.0,74,0.00,,,0.00,WUHU216DAVISVP2,2013-10-15 00:02:00,
2013-10-14 20:07:00,53.8,46.1,30.23,East,86,0.0,0.0,75,0.00,,,0.00,WUHU216DAVISVP2,2013-10-15 00:07:00,
2013-10-14 20:12:00,53.4,46.1,30.22,East,86,0.0,0.0,76,0.00,,,0.00,WUHU216DAVISVP2,2013-10-15 00:12:00,
2013-10-14 20:17:00,52.9,45.6,30.22,East,86,0.0,0.0,76,0.00,,,0.00,WUHU216DAVISVP2,2013-10-15 00:17:00,
2013-10-14 20:21:00,52.5,45.6,30.22,East,86,0.0,0.0,77,0.00,,,0.00,WUHU216DAVISVP2,2013-10-15 00:21:00,
2013-10-14 20:26:00,52.1,45.5,30.22,East,86,0.0,0.0,78,0.00,,,0.00,WUHU216DAVISVP2,2013-10-15 00:26:00,
2013-10-14 20:31:00,51.6,45.3,30.22,East,86,0.0,0.0,79,0.00,,,0.00,WUHU216DAVISVP2,2013-10-15 00:31:00,
2013-10-14 20:36:00,51.4,45.5,30.21,East,86,0.0,1.0,80,0.00,,,0.00,WUHU216DAVISVP2,2013-10-15 00:36:00,
2013-10-14 20:41:00,51.3,45.4,30.21,East,86,0.0,1.0,80,0.00,,,0.00,WUHU216DAVISVP2,2013-10-15 00:41:00,
2013-10-14 20:46:00,51.2,45.3,30.21,East,86,0.0,0.0,80,0.00,,,0.00,WUHU216DAVISVP2,2013-10-15 00:46:00,
2013-10-14 20:51:00,51.1,45.5,30.20,East,90,1.0,4.0,81,0.00,,,0.00,WUHU216DAVISVP2,2013-10-15 00:51:00,
2013-10-14 20:56:00,51.1,45.5,30.20,East,90,0.0,4.0,81,0.00,,,0.00,WUHU216DAVISVP2,2013-10-15 00:56:00,
2013-10-14 21:01:00,51.0,45.4,30.20,East,90,0.0,1.0,81,0.00,,,0.00,WUHU216DAVISVP2,2013-10-15 01:01:00,
2013-10-14 21:06:00,50.9,45.3,30.20,East,90,0.0,2.0,81,0.00,,,0.00,WUHU216DAVISVP2,2013-10-15 01:06:00,
2013-10-14 21:11:00,50.9,45.3,30.20,East,90,0.0,2.0,81,0.00,,,0.00,WUHU216DAVISVP2,2013-10-15 01:11:00,
2013-10-14 21:16:00,50.8,45.2,30.20,East,90,0.0,2.0,81,0.00,,,0.00,WUHU216DAVISVP2,2013-10-15 01:16:00,
2013-10-14 21:21:00,50.7,45.1,30.21,East,92,0.0,1.0,81,0.00,,,0.00,WUHU216DAVISVP2,2013-10-15 01:21:00,
2013-10-14 21:26:00,50.6,45.0,30.21,East,92,0.0,0.0,81,0.00,,,0.00,WUHU216DAVISVP2,2013-10-15 01:26:00,
2013-10-14 21:31:00,50.4,45.1,30.21,East,82,0.0,2.0,82,0.00,,,0.00,WUHU216DAVISVP2,2013-10-15 01:31:00,
2013-10-14 21:37:00,50.1,44.8,30.21,East,82,0.0,2.0,82,0.00,,,0.00,WUHU216DAVISVP2,2013-10-15 01:37:00,
2013-10-14 21:42:00,49.8,44.5,30.21,East,82,0.0,0.0,82,0.00,,,0.00,WUHU216DAVISVP2,2013-10-15 01:42:00,
2013-10-14 21:47:00,49.5,44.2,30.21,East,82,0.0,0.0,82,0.00,,,0.00,WUHU216DAVISVP2,2013-10-15 01:47:00,
2013-10-14 21:52:00,49.2,44.3,30.21,East,82,0.0,0.0,83,0.00,,,0.00,WUHU216DAVISVP2,2013-10-15 01:52:00,
2013-10-14 21:57:00,48.9,44.3,30.21,East,82,0.0,0.0,84,0.00,,,0.00,WUHU216DAVISVP2,2013-10-15 01:57:00,
2013-10-14 22:02:00,48.6,44.0,30.21,East,82,0.0,0.0,84,0.00,,,0.00,WUHU216DAVISVP2,2013-10-15 02:02:00,
2013-10-14 22:07:00,48.3,44.0,30.21,East,82,0.0,0.0,85,0.00,,,0.00,WUHU216DAVISVP2,2013-10-15 02:07:00,
2013-10-14 22:12:00,48.0,44.0,30.21,East,82,0.0,0.0,86,0.00,,,0.00,WUHU216DAVISVP2,2013-10-15 02:12:00,
2013-10-14 22:17:00,47.8,43.8,30.21,East,82,0.0,0.0,86,0.00,,,0.00,WUHU216DAVISVP2,2013-10-15 02:17:00,
2013-10-14 22:22:00,47.5,43.8,30.21,East,82,0.0,0.0,87,0.00,,,0.00,WUHU216DAVISVP2,2013-10-15 02:22:00,
2013-10-14 22:27:00,47.3,43.6,30.21,East,82,0.0,0.0,87,0.00,,,0.00,WUHU216DAVISVP2,2013-10-15 02:27:00,
2013-10-14 22:32:00,47.0,43.3,30.21,East,82,0.0,0.0,87,0.00,,,0.00,WUHU216DAVISVP2,2013-10-15 02:32:00,
2013-10-14 22:37:00,46.8,43.1,30.21,East,82,0.0,0.0,87,0.00,,,0.00,WUHU216DAVISVP2,2013-10-15 02:37:00,
2013-10-14 22:42:00,46.4,42.7,30.21,East,82,0.0,0.0,87,0.00,,,0.00,WUHU216DAVISVP2,2013-10-15 02:42:00,
2013-10-14 22:47:00,46.2,42.8,30.21,East,82,0.0,0.0,88,0.00,,,0.00,WUHU216DAVISVP2,2013-10-15 02:47:00,
2013-10-14 22:52:00,45.8,42.4,30.21,East,82,0.0,0.0,88,0.00,,,0.00,WUHU216DAVISVP2,2013-10-15 02:52:00,
2013-10-14 22:57:00,45.5,42.4,30.21,East,82,0.0,0.0,89,0.00,,,0.00,WUHU216DAVISVP2,2013-10-15 02:57:00,
2013-10-14 23:02:00,45.4,42.6,30.21,East,82,0.0,0.0,90,0.00,,,0.00,WUHU216DAVISVP2,2013-10-15 03:02:00,
2013-10-14 23:07:00,45.1,42.3,30.21,East,82,0.0,0.0,90,0.00,,,0.00,WUHU216DAVISVP2,2013-10-15 03:07:00,
2013-10-14 23:12:00,44.9,42.1,30.22,East,82,0.0,0.0,90,0.00,,,0.00,WUHU216DAVISVP2,2013-10-15 03:12:00,
2013-10-14 23:17:00,44.7,41.9,30.22,East,82,0.0,0.0,90,0.00,,,0.00,WUHU216DAVISVP2,2013-10-15 03:17:00,
2013-10-14 23:22:00,44.6,42.1,30.22,East,82,0.0,0.0,91,0.00,,,0.00,WUHU216DAVISVP2,2013-10-15 03:22:00,
2013-10-14 23:27:00,44.4,41.9,30.22,East,82,0.0,0.0,91,0.00,,,0.00,WUHU216DAVISVP2,2013-10-15 03:27:00,
2013-10-14 23:32:00,44.3,41.8,30.22,East,82,0.0,0.0,91,0.00,,,0.00,WUHU216DAVISVP2,2013-10-15 03:32:00,
2013-10-14 23:37:00,44.1,41.6,30.22,East,82,0.0,0.0,91,0.00,,,0.00,WUHU216DAVISVP2,2013-10-15 03:37:00,
2013-10-14 23:42:00,43.9,41.4,30.22,East,82,0.0,0.0,91,0.00,,,0.00,WUHU216DAVISVP2,2013-10-15 03:42:00,
2013-10-14 23:47:00,43.9,41.7,30.22,East,82,0.0,2.0,92,0.00,,,0.00,WUHU216DAVISVP2,2013-10-15 03:47:00,
2013-10-14 23:52:00,43.7,41.5,30.21,East,82,0.0,2.0,92,0.00,,,0.00,WUHU216DAVISVP2,2013-10-15 03:52:00,
2013-10-14 23:57:00,43.7,41.5,30.21,East,82,0.0,1.0,92,0.00,,,0.00,WUHU216DAVISVP2,2013-10-15 03:57:00,